Meridian, MS

9:59 AM CST on November 21, 2019 (GMT -0600)
Key

Weather History for KMEI - October, 2019

Change the Weather History Date:

Tuesday, October 15, 2019

  Actual Average Record
Temperature  
Mean Temperature 67 °F 64 °F  
Max Temperature 70 °F 78 °F 91 °F (1897)
Min Temperature 64 °F 51 °F 32 °F (1978)
Degree Days  
Heating Degree Days 0 3  
Month to date heating degree days 31  
Since 1 July heating degree days 38  
Cooling Degree Days 2 3  
Month to date cooling degree days 61  
Year to date cooling degree days 1984  
Growing Degree Days 17 (Base 50)    
Moisture  
Dew Point 65 °F    
Average Humidity 91    
Maximum Humidity 94    
Minimum Humidity 87    
Precipitation  
Precipitation 2.95 in 0.12 in 5.09 in (1932)
Month to date precipitation 1.74  
Year to date precipitation 44.13  
Sea Level Pressure  
Sea Level Pressure 30.00 in    
Wind  
Wind Speed 2 mph ()    
Max Wind Speed 10 mph    
Max Gust Speed -    
Visibility 5.6 miles    
Events Rain , Thunderstorm    
T = Trace of Precipitation, MM = Missing Value Source: Averaged Metar Reports

Daily Weather History Graph

Daily Weather History Graph

Search for Another Location

Airport or City:

Astronomy

Oct. 15, 2019 Rise Set
Actual Time 6:58 AM CDT 6:22 PM CDT
Civil Twilight 6:33 AM CDT 6:47 PM CDT
Nautical Twilight 6:05 AM CDT 7:15 PM CDT
Astronomical Twilight 5:36 AM CDT 7:44 PM CDT
Moon 7:46 PM CDT (10/15) 8:26 AM CDT (10/15)
Length of Visible Light 12h 13m
Length of Day
11h 23m
Full, 97% of the Moon is Illuminated
Oct 15
Full
Oct 21
Last Quarter
Oct 27
New
Nov 4
First Quarter
Nov 12
Full

Hourly Weather History & Observations

Time (CDT) Temp. Dew Point Humidity Pressure Visibility Wind Dir Wind Speed Gust Speed Precip Events Conditions
12:58 AM 64.9 °F 62.1 °F 90% 30.07 in 10.0 mi Calm Calm - 0.00 in Rain Light Rain
1:58 AM 64.9 °F 62.1 °F 90% 30.07 in 8.0 mi Calm Calm - 0.05 in Rain Light Rain
2:58 AM 64.9 °F 62.1 °F 90% 30.04 in 10.0 mi SSW 3.5 mph - 0.06 in   Mostly Cloudy
3:58 AM 64.9 °F 63.0 °F 93% 30.03 in 10.0 mi Calm Calm - 0.01 in Rain Light Rain
5:35 AM 66.0 °F 63.0 °F 90% 30.03 in 8.0 mi Calm Calm - 0.02 in Rain Light Rain
5:58 AM 66.0 °F 63.0 °F 90% 30.03 in 10.0 mi Calm Calm - 0.02 in   Overcast
6:26 AM 66.0 °F 64.0 °F 93% 30.03 in 10.0 mi Calm Calm - N/A   Overcast
6:44 AM 66.0 °F 64.0 °F 93% 30.04 in 6.0 mi Calm Calm - 0.01 in Rain Rain
6:58 AM 66.0 °F 64.0 °F 93% 30.03 in 3.0 mi Calm Calm - 0.06 in Rain Heavy Rain
7:53 AM 66.2 °F 64.4 °F 94% 30.01 in 8.0 mi ENE 3.5 mph - 0.03 in   Overcast
7:58 AM 68.0 °F 64.9 °F 90% 30.01 in 8.0 mi Calm Calm - 0.03 in   Overcast
8:47 AM 68.0 °F 66.0 °F 93% 30.04 in 4.0 mi Calm Calm - 0.04 in Rain Rain
8:53 AM 68.0 °F 66.2 °F 94% 30.02 in 1.8 mi ESE 4.6 mph - 0.09 in Rain Heavy Rain
8:58 AM 68.0 °F 66.0 °F 93% 30.03 in 1.8 mi SSE 3.5 mph - 0.15 in Rain Heavy Rain
9:00 AM 68.0 °F 66.0 °F 93% 30.04 in 2.0 mi South 3.5 mph - 0.01 in Rain , Thunderstorm Heavy Rain
9:06 AM 68.0 °F 66.0 °F 93% 30.03 in 1.5 mi SE 3.5 mph - 0.09 in Rain , Thunderstorm Heavy Rain
9:09 AM 68.0 °F 66.0 °F 93% 30.02 in 1.2 mi East 4.6 mph - 0.13 in Rain , Thunderstorm Heavy Thunderstorms and Rain
9:15 AM 68.0 °F 66.0 °F 93% 30.04 in 2.0 mi Calm Calm - 0.17 in Rain , Thunderstorm Heavy Thunderstorms and Rain
9:28 AM 68.0 °F 64.9 °F 90% 30.03 in 2.0 mi ESE 4.6 mph - 0.26 in Rain Heavy Rain
9:36 AM 68.0 °F 64.9 °F 90% 30.05 in 2.0 mi Calm Calm - 0.34 in Rain , Thunderstorm Heavy Rain
9:46 AM 68.0 °F 64.9 °F 90% 30.05 in 3.0 mi North 3.5 mph - 0.39 in Rain , Thunderstorm Heavy Thunderstorms and Rain
9:53 AM 68.0 °F 64.4 °F 88% 30.06 in 1.8 mi WNW 6.9 mph - 0.42 in Rain , Thunderstorm Heavy Thunderstorms and Rain
9:58 AM 68.0 °F 64.9 °F 90% 30.05 in 1.2 mi Calm Calm - 0.50 in Rain , Thunderstorm Heavy Thunderstorms and Rain
10:03 AM 68.0 °F 66.0 °F 93% 30.04 in 1.0 mi ESE 6.9 mph - 0.08 in Rain Heavy Rain
10:18 AM 68.0 °F 66.0 °F 93% 30.05 in 3.0 mi Calm Calm - 0.32 in Rain Rain
10:34 AM 68.0 °F 64.9 °F 90% 30.04 in 1.8 mi NE 3.5 mph - 0.41 in Rain , Thunderstorm Heavy Rain
10:49 AM 68.0 °F 66.0 °F 93% 30.04 in 1.2 mi NE 4.6 mph - 0.61 in Rain Heavy Rain
10:58 AM 68.0 °F 66.0 °F 93% 30.04 in 1.2 mi ESE 3.5 mph - 0.77 in Rain Heavy Rain
11:19 AM 68.0 °F 66.0 °F 93% 30.05 in 2.0 mi Calm Calm - 0.28 in Rain Heavy Rain
11:31 AM 68.0 °F 66.0 °F 93% 30.01 in 3.0 mi ENE 8.1 mph - 0.35 in Rain Heavy Rain
11:58 AM 68.0 °F 64.9 °F 90% 30.01 in 10.0 mi SE 3.5 mph - 0.43 in Rain Light Rain
12:14 PM 69.1 °F 66.0 °F 90% 30.01 in 7.0 mi ESE 3.5 mph - 0.03 in Rain Rain
12:28 PM 69.1 °F 64.9 °F 87% 30.01 in 2.0 mi NE 4.6 mph - 0.07 in Rain Rain
12:58 PM 69.1 °F 66.0 °F 90% 29.99 in 6.0 mi ENE 3.5 mph - 0.17 in Rain Rain
1:08 PM 68.0 °F 66.0 °F 93% 29.99 in 4.0 mi ESE 3.5 mph - 0.02 in Rain Rain
1:58 PM 69.1 °F 66.0 °F 90% 29.96 in 4.0 mi South 3.5 mph - 0.15 in Rain Rain
2:05 PM 69.1 °F 66.0 °F 90% 29.96 in 6.0 mi Calm Calm - 0.02 in Rain Heavy Rain
2:58 PM 69.1 °F 66.9 °F 93% 29.93 in 7.0 mi SSE 4.6 mph - 0.22 in Rain Rain
3:58 PM 70.0 °F 66.9 °F 90% 29.90 in 10.0 mi ESE 3.5 mph - 0.19 in Rain Rain
4:38 PM 70.0 °F 66.9 °F 90% 29.90 in 10.0 mi Calm Calm - 0.02 in Rain Light Rain
4:58 PM 70.0 °F 66.9 °F 90% 29.89 in 4.0 mi Variable 3.5 mph - 0.05 in Rain Rain
6:58 PM 70.0 °F 66.9 °F 90% 29.88 in 10.0 mi Calm Calm - 0.00 in   Overcast
7:58 PM 69.1 °F 66.9 °F 93% 29.88 in 10.0 mi Calm Calm - 0.03 in Rain Light Rain
9:21 PM 69.1 °F 66.9 °F 93% 29.89 in 10.0 mi Calm Calm - 0.01 in Rain Light Rain
9:36 PM 69.1 °F 66.9 °F 93% 29.90 in 10.0 mi SW 3.5 mph - 0.02 in Rain Light Rain
9:58 PM 69.1 °F 66.0 °F 90% 29.90 in 8.0 mi SSW 5.8 mph - 0.05 in Rain Light Rain
10:26 PM 69.1 °F 66.0 °F 90% 29.92 in 9.0 mi SSW 5.8 mph - 0.05 in Rain Rain
11:35 PM 69.1 °F 66.0 °F 90% 29.86 in 10.0 mi SSW 10.4 mph - 0.01 in   Overcast
11:58 PM 69.1 °F 66.0 °F 90% 29.87 in 10.0 mi SSW 8.1 mph - 0.01 in   Mostly Cloudy